Lid_Strength_Index
3 3 3 3 3 3 3 4 4 4 4 4 4 4 4 5 6 6 5 5 5 5 5 4 4 4 6 9 12 8 -1 -1 0 3 6 8 9 7 9 8 7 8 7 6 6 6 6
4 4 4 4 4 4 4 4 4 4 3 4 4 4 4 4 4 5 4 5 5 5 5 5 5 4 8 14 8 7 7 8 7 4 5 7 8 8 10 9 9 7 7 7 6 6 6
4 4 4 4 4 4 4 4 4 4 4 4 4 4 4 4 4 4 4 4 4 5 5 5 4 6 9 11 8 8 9 9 8 7 6 5 6 8 9 11 9 9 10 9 8 7 7
5 5 5 5 5 5 5 5 4 4 4 4 4 4 4 4 3 4 4 4 4 5 4 4 3 6 11 6 6 7 7 9 9 8 7 6 5 8 10 10 10 11 12 14 10 8 7
5 5 5 5 5 5 5 5 4 4 4 4 4 4 4 4 4 3 3 4 4 5 4 4 6 7 12 6 8 6 8 10 10 10 9 6 7 10 11 12 14 13 15 14 11 9 8
5 5 5 5 5 6 5 5 5 5 4 4 4 4 4 4 4 3 3 4 5 5 6 6 6 9 9 10 9 8 8 9 10 10 10 10 10 12 14 14 17 15 15 13 13 10 9
6 6 5 5 5 6 5 5 5 5 5 5 5 4 4 4 3 3 4 9 11 9 8 10 11 11 9 7 6 7 8 10 9 10 14 11 13 14 12 12 12 12 13 13 11 9 10
6 5 6 5 6 6 6 6 6 5 5 5 5 5 4 3 2 2 5 10 9 8 12 8 9 8 7 6 9 8 7 10 11 14 12 12 14 11 10 11 12 12 13 13 10 8 11
5 5 5 5 6 6 6 6 6 5 5 4 3 1 1 0 -0 3 6 6 4 6 11 10 9 9 9 8 10 9 7 8 12 13 13 14 12 9 10 12 12 13 14 13 12 9 10
5 5 6 6 5 6 6 6 5 5 3 1 0 -0 -1 -1 3 5 5 3 3 4 15 14 10 9 8 8 11 7 6 8 10 13 11 13 10 10 11 13 12 14 10 10 10 12 15
5 5 6 5 6 6 6 5 4 2 1 0 -1 -1 -1 -1 2 4 3 2 2 3 21 11 10 6 7 10 9 10 7 8 10 12 11 14 12 12 12 12 11 12 9 9 10 12 14
6 6 6 5 6 6 4 3 1 1 -0 -1 -1 -1 -1 1 2 2 1 2 4 13 18 11 8 10 10 9 9 8 9 8 8 10 11 12 9 10 11 9 10 10 11 11 11 13 16
6 5 5 5 5 4 2 1 0 -0 -1 -1 -1 -1 -0 0 5 3 2 4 14 17 9 11 11 10 11 12 10 10 10 12 13 15 14 12 12 10 10 11 11 12 14 17 19 18 18
5 5 5 4 3 2 0 -0 -0 -1 -1 -1 -1 -1 0 1 2 2 4 10 17 12 11 8 10 10 12 11 12 10 11 13 11 12 13 15 16 12 10 11 13 13 13 16 20 19 17
5 5 4 3 2 0 -0 -0 -0 -0 -1 -1 -0 3 4 3 1 2 7 14 14 11 9 10 9 12 13 12 12 12 11 12 12 11 14 14 14 9 9 9 10 13 14 11 15 14 16
5 5 4 2 1 0 -0 -0 -1 -1 -1 -1 2 3 5 2 1 3 9 12 11 8 8 8 12 12 15 14 14 13 12 11 11 10 11 12 15 10 9 8 9 12 11 15 16 19 20
5 4 3 1 0 0 -0 -0 -1 -1 -1 -0 6 7 4 0 2 6 13 11 9 6 7 9 11 13 13 14 14 14 13 11 10 11 10 13 13 13 10 12 12 13 13 14 13 14 18
4 3 2 1 0 0 -0 -1 -1 -1 -1 2 7 11 3 1 9 9 11 9 7 8 6 8 8 10 12 12 14 15 14 12 9 11 13 12 14 15 13 11 9 10 12 12 15 16 15
3 3 1 0 -0 -0 -0 -1 -1 -1 -1 3 7 8 3 2 12 11 9 9 8 8 8 9 9 9 9 12 15 14 12 10 9 12 13 12 15 17 15 13 11 12 12 12 13 14 15
3 2 1 -0 -0 -0 -0 -1 -1 -1 -1 4 6 11 7 6 7 9 11 11 11 7 8 7 8 8 9 12 11 14 13 11 10 11 9 11 14 14 16 15 12 13 12 12 12 15 14
3 2 0 -0 -0 -1 -1 -1 -1 -1 -1 5 8 10 7 11 10 9 10 10 11 11 8 8 9 9 10 12 13 13 12 11 11 10 11 14 17 13 12 11 11 11 11 11 13 12 14
3 2 0 -0 -0 -1 -1 -1 -1 -1 0 6 9 8 6 8 8 9 10 10 11 10 10 10 11 9 9 11 11 13 12 12 13 12 13 14 18 14 13 11 12 13 11 11 11 11 12
3 2 1 0 0 -0 -1 -1 -1 -1 1 6 4 4 6 7 8 12 11 10 10 8 8 8 9 9 10 9 7 8 9 10 11 13 14 15 16 16 16 12 12 15 12 11 11 10 10
3 2 1 1 1 0 -0 -1 -1 -1 -0 1 3 4 7 11 9 10 9 8 9 9 10 7 7 9 7 5 5 7 9 10 11 11 12 15 16 16 18 14 18 13 10 9 11 10 10
3 2 1 1 1 1 0 -1 -1 -1 -1 2 4 4 7 10 9 9 8 9 8 8 9 8 7 6 6 7 10 12 13 13 12 11 11 12 15 18 18 17 14 11 10 12 11 11 9
4 2 1 1 1 1 0 -0 -1 -1 -1 3 4 3 5 9 10 7 9 8 10 10 9 8 6 6 7 9 11 15 17 14 15 14 11 11 13 16 16 19 18 14 10 8 9 13 9
4 2 2 1 1 0 0 -0 -1 -1 -1 2 2 4 4 8 7 6 9 9 7 8 10 10 8 9 7 12 16 15 16 12 17 17 15 15 16 17 17 18 15 10 9 9 14 14 11
4 3 2 1 1 1 -0 -1 -1 -1 -1 1 3 3 3 6 5 4 5 7 7 7 10 9 9 9 10 13 13 14 14 13 15 14 14 15 16 16 15 18 20 10 11 14 13 11 11
4 3 2 1 1 1 -0 -1 -1 -1 -1 -0 4 3 2 4 5 3 3 3 4 5 7 7 8 8 9 11 11 11 13 12 13 16 12 15 14 15 14 14 10 10 12 11 11 11 11